Location: Sternwarte ZA, Rosenfeld-Brittheim
(48.2889°N, 8.6789°E)
Time: 20:26:57
(UTC+02:00)

ISS - Pass Details

Date: 17 July 2019
Orbit: 409 x 418 km, 51.6° (Epoch: 20 July)

Event Time Altitude Azimuth Distance (km) Brightness Sun altitude
Rises 23:50:59 0° 250° (WSW) 2,347 0.1 -17.0°
Reaches altitude 10° 23:53:05 10° 251° (WSW) 1,485 -0.9 -17.2°
Maximum altitude 23:56:25 81° 338° (NNW) 423 -3.8 -17.4°
Drops below altitude 10° 23:59:45 10° 67° (ENE) 1,485 -1.0 -17.6°
Sets 00:01:51 0° 69° (ENE) 2,347 0.0 -17.7°
